| time (UTC) | temp F | wind direction | speed knots | gust knots | rain 1hr in | rain 24hr in | rain mn in | humidity % | barometer mb |
| 20260504174503 | 65 | 189 | 6.1 | 12.2 | 0.00 | 0.00 | 0.00 | 48 | 1009.4 |
| 20260504174003 | 65 | 193 | 6.1 | 12.2 | 0.00 | 0.00 | 0.00 | 47 | 1009.5 |
| 20260504173504 | 65 | 162 | 5.2 | 12.2 | 0.00 | 0.00 | 0.00 | 48 | 1009.5 |
| 20260504173008 | 65 | 269 | 3.5 | 14.8 | 0.00 | 0.00 | 0.00 | 48 | 1009.6 |
| 20260504172503 | 64 | 257 | 9.6 | 14.8 | 0.00 | 0.00 | 0.00 | 47 | 1009.7 |
| 20260504172006 | 64 | 217 | 4.3 | 14.8 | 0.00 | 0.00 | 0.00 | 49 | 1009.8 |
| 20260504171513 | 64 | 229 | 6.1 | 14.8 | 0.00 | 0.00 | 0.00 | 47 | 1009.8 |
| 20260504171010 | 64 | 184 | 6.1 | 14.8 | 0.00 | 0.00 | 0.00 | 50 | 1009.7 |
| 20260504170504 | 64 | 168 | 6.1 | 14.8 | 0.00 | 0.00 | 0.00 | 47 | 1009.8 |
| 20260504151006 | 59 | 179 | 3.5 | 13.9 | 0.00 | 0.00 | 0.00 | 50 | 1010.9 |
| 20260504150504 | 58 | 213 | 4.3 | 13.9 | 0.00 | 0.00 | 0.00 | 51 | 1010.9 |
| 20260504141003 | 57 | 196 | 3.5 | 13.9 | 0.00 | 0.00 | 0.00 | 54 | 1011.3 |
| 20260504140503 | 56 | 224 | 6.1 | 13.9 | 0.00 | 0.00 | 0.00 | 52 | 1011.3 |
| 20260504130503 | 53 | 221 | 4.3 | 9.6 | 0.00 | 0.00 | 0.00 | 54 | 1011.2 |
| 20260504110507 | 47 | 176 | 3.5 | 7.8 | 0.00 | 0.00 | 0.00 | 58 | 1011.3 |
| 20260504100511 | 46 | 175 | 4.3 | 7.8 | 0.00 | 0.00 | 0.00 | 60 | 1011.4 |
| 20260504082003 | 45 | 155 | 3.5 | 5.2 | 0.00 | 0.00 | 0.00 | 58 | 1012.2 |
| 20260504081506 | 45 | 167 | 3.5 | 6.1 | 0.00 | 0.00 | 0.00 | 58 | 1012.2 |
| 20260504081004 | 46 | 165 | 3.5 | 6.1 | 0.00 | 0.00 | 0.00 | 57 | 1012.3 |
| 20260504080504 | 46 | 202 | 3.5 | 5.2 | 0.00 | 0.00 | 0.00 | 57 | 1012.3 |
| 20260504044509 | 48 | 201 | 3.5 | 7.8 | 0.00 | 0.00 | 0.00 | 51 | 1013.2 |
| 20260504044004 | 48 | 215 | 3.5 | 7.8 | 0.00 | 0.00 | 0.00 | 51 | 1013.1 |
| 20260504043506 | 48 | 210 | 2.6 | 8.7 | 0.00 | 0.00 | 0.00 | 51 | 1013.1 |
| 20260504043012 | 48 | 233 | 4.3 | 9.6 | 0.00 | 0.00 | 0.00 | 51 | 1013.2 |
| 20260504042503 | 48 | 240 | 5.2 | 9.6 | 0.00 | 0.00 | 0.00 | 51 | 1013.1 |
| 20260504042007 | 48 | 264 | 5.2 | 9.6 | 0.00 | 0.00 | 0.00 | 51 | 1013.2 |
| 20260504041514 | 48 | 256 | 4.3 | 9.6 | 0.00 | 0.00 | 0.00 | 51 | 1013.3 |
| 20260504041005 | 48 | 211 | 3.5 | 7.0 | 0.00 | 0.00 | 0.00 | 52 | 1013.3 |
| 20260504040506 | 48 | 172 | 4.3 | 7.8 | 0.00 | 0.00 | 0.00 | 52 | 1013.3 |
| 20260504040021 | 48 | 240 | 3.5 | 7.8 | 0.00 | 0.00 | 0.00 | 52 | 1013.4 |
| 20260504035506 | 48 | 231 | 4.3 | 7.8 | 0.00 | 0.00 | 0.00 | 52 | 1013.3 |
| 20260504035003 | 47 | 200 | 3.5 | 6.1 | 0.00 | 0.00 | 0.00 | 52 | 1013.4 |
| 20260504034503 | 48 | 161 | 2.6 | 7.0 | 0.00 | 0.00 | 0.00 | 51 | 1013.5 |
| 20260504034003 | 48 | 199 | 2.6 | 8.7 | 0.00 | 0.00 | 0.00 | 51 | 1013.5 |
| 20260504033506 | 48 | 210 | 3.5 | 9.6 | 0.00 | 0.00 | 0.00 | 51 | 1013.5 |
| 20260504033007 | 48 | 219 | 4.3 | 9.6 | 0.00 | 0.00 | 0.00 | 51 | 1013.4 |
| 20260504032504 | 48 | 219 | 5.2 | 9.6 | 0.00 | 0.00 | 0.00 | 50 | 1013.4 |
| 20260504032004 | 49 | 221 | 5.2 | 8.7 | 0.00 | 0.00 | 0.00 | 50 | 1013.4 |
| 20260504031514 | 49 | 221 | 4.3 | 10.4 | 0.00 | 0.00 | 0.00 | 50 | 1013.3 |
| 20260504031008 | 49 | 215 | 4.3 | 10.4 | 0.00 | 0.00 | 0.00 | 49 | 1013.3 |
| 20260504030508 | 49 | 238 | 5.2 | 8.7 | 0.00 | 0.00 | 0.00 | 50 | 1013.3 |
| 20260504030014 | 49 | 264 | 5.2 | 8.7 | 0.00 | 0.00 | 0.00 | 49 | 1013.4 |
| 20260504025510 | 49 | 227 | 5.2 | 8.7 | 0.00 | 0.00 | 0.00 | 49 | 1013.4 |
| 20260504025006 | 49 | 200 | 4.3 | 12.2 | 0.00 | 0.00 | 0.00 | 49 | 1013.4 |
| 20260504024519 | 49 | 188 | 3.5 | 12.2 | 0.00 | 0.00 | 0.00 | 49 | 1013.5 |
| 20260504024008 | 49 | 240 | 5.2 | 11.3 | 0.00 | 0.00 | 0.00 | 49 | 1013.5 |
| 20260504023503 | 49 | 201 | 5.2 | 11.3 | 0.00 | 0.00 | 0.00 | 49 | 1013.5 |
| 20260504023004 | 49 | 243 | 5.2 | 10.4 | 0.00 | 0.00 | 0.00 | 49 | 1013.6 |
| 20260504022503 | 49 | 221 | 5.2 | 11.3 | 0.00 | 0.00 | 0.00 | 49 | 1013.5 |
| 20260504022004 | 49 | 258 | 4.3 | 11.3 | 0.00 | 0.00 | 0.00 | 49 | 1013.6 |
| 20260504021505 | 49 | 274 | 4.3 | 9.6 | 0.00 | 0.00 | 0.00 | 49 | 1013.6 |
| 20260504021003 | 49 | 238 | 4.3 | 11.3 | 0.00 | 0.00 | 0.00 | 48 | 1013.6 |
| 20260504020503 | 49 | 255 | 4.3 | 11.3 | 0.00 | 0.00 | 0.00 | 48 | 1013.6 |
| 20260504020010 | 49 | 247 | 3.5 | 13.0 | 0.00 | 0.00 | 0.00 | 48 | 1013.5 |
| 20260504015507 | 50 | 240 | 4.3 | 13.0 | 0.00 | 0.00 | 0.00 | 48 | 1013.6 |
| 20260504015004 | 50 | 255 | 4.3 | 8.7 | 0.00 | 0.00 | 0.00 | 47 | 1013.6 |
| 20260504014518 | 50 | 238 | 4.3 | 9.6 | 0.00 | 0.00 | 0.00 | 47 | 1013.6 |
| 20260504014007 | 50 | 245 | 5.2 | 9.6 | 0.00 | 0.00 | 0.00 | 47 | 1013.5 |
| 20260504013507 | 50 | 251 | 5.2 | 9.6 | 0.00 | 0.00 | 0.00 | 47 | 1013.4 |
| 20260504013022 | 50 | 263 | 5.2 | 9.6 | 0.00 | 0.00 | 0.00 | 47 | 1013.3 |
| 20260504012507 | 50 | 227 | 4.3 | 11.3 | 0.00 | 0.00 | 0.00 | 47 | 1013.3 |
| 20260504012008 | 50 | 253 | 6.1 | 11.3 | 0.00 | 0.00 | 0.00 | 46 | 1013.3 |
| 20260504011504 | 50 | 297 | 3.5 | 11.3 | 0.00 | 0.00 | 0.00 | 46 | 1013.2 |
| 20260504011003 | 50 | 220 | 5.2 | 11.3 | 0.00 | 0.00 | 0.00 | 46 | 1013.2 |
| 20260504010502 | 51 | 214 | 7.0 | 11.3 | 0.00 | 0.00 | 0.00 | 46 | 1013.3 |
| 20260504010007 | 51 | 225 | 6.1 | 11.3 | 0.00 | 0.00 | 0.00 | 46 | 1013.3 |
| 20260504005504 | 51 | 250 | 3.5 | 10.4 | 0.00 | 0.00 | 0.00 | 46 | 1013.3 |
| 20260504005004 | 51 | 254 | 5.2 | 12.2 | 0.00 | 0.00 | 0.00 | 46 | 1013.2 |
| 20260504004517 | 51 | 241 | 6.1 | 12.2 | 0.00 | 0.00 | 0.00 | 46 | 1013.2 |
| 20260504004004 | 51 | 246 | 5.2 | 10.4 | 0.00 | 0.00 | 0.00 | 46 | 1013.2 |
| 20260504003507 | 51 | 235 | 4.3 | 11.3 | 0.00 | 0.00 | 0.00 | 45 | 1013.2 |
| 20260504003018 | 51 | 197 | 6.1 | 11.3 | 0.00 | 0.00 | 0.00 | 45 | 1013.2 |
| 20260504002506 | 51 | 243 | 5.2 | 11.3 | 0.00 | 0.00 | 0.00 | 45 | 1013.2 |
| 20260504002009 | 52 | 245 | 7.0 | 11.3 | 0.00 | 0.00 | 0.00 | 44 | 1013.3 |
| 20260504001520 | 52 | 253 | 5.2 | 11.3 | 0.00 | 0.00 | 0.00 | 44 | 1013.3 |
| 20260504001007 | 52 | 234 | 7.0 | 13.0 | 0.00 | 0.00 | 0.00 | 44 | 1013.2 |
| 20260504000508 | 52 | 278 | 4.3 | 13.0 | 0.00 | 0.00 | 0.00 | 44 | 1013.1 |
| 20260504000008 | 53 | 213 | 5.2 | 10.4 | 0.00 | 0.00 | 0.00 | 43 | 1013.2 |
| 20260503235503 | 53 | 274 | 5.2 | 13.0 | 0.00 | 0.00 | 0.00 | 43 | 1013.3 |
| 20260503235002 | 53 | 282 | 6.1 | 15.6 | 0.00 | 0.00 | 0.00 | 42 | 1013.3 |
| 20260503234503 | 53 | 244 | 6.1 | 15.6 | 0.00 | 0.00 | 0.00 | 42 | 1013.2 |
| 20260503234001 | 53 | 238 | 8.7 | 13.9 | 0.00 | 0.00 | 0.00 | 41 | 1013.2 |
| 20260503233502 | 53 | 260 | 4.3 | 12.2 | 0.00 | 0.00 | 0.00 | 42 | 1013.2 |
| 20260503233003 | 54 | 247 | 6.1 | 12.2 | 0.00 | 0.00 | 0.00 | 41 | 1013.2 |
| 20260503232503 | 54 | 258 | 7.0 | 12.2 | 0.00 | 0.00 | 0.00 | 41 | 1013.3 |
| 20260503232002 | 54 | 268 | 4.3 | 16.5 | 0.00 | 0.00 | 0.00 | 41 | 1013.2 |
| 20260503231503 | 54 | 274 | 7.0 | 16.5 | 0.00 | 0.00 | 0.00 | 41 | 1013.3 |
| 20260503231004 | 54 | 239 | 6.1 | 16.5 | 0.00 | 0.00 | 0.00 | 40 | 1013.3 |
| 20260503230503 | 54 | 263 | 8.7 | 20.0 | 0.00 | 0.00 | 0.00 | 40 | 1013.2 |
| 20260503230004 | 54 | 264 | 10.4 | 20.0 | 0.00 | 0.00 | 0.00 | 39 | 1013.4 |
| 20260503225504 | 54 | 256 | 8.7 | 16.5 | 0.00 | 0.00 | 0.00 | 39 | 1013.3 |
| 20260503225004 | 54 | 251 | 4.3 | 14.8 | 0.00 | 0.00 | 0.00 | 40 | 1013.2 |
| 20260503224504 | 54 | 240 | 8.7 | 17.4 | 0.00 | 0.00 | 0.00 | 39 | 1013.3 |
| 20260503224003 | 54 | 241 | 9.6 | 20.0 | 0.00 | 0.00 | 0.00 | 39 | 1013.3 |
| 20260503223503 | 54 | 262 | 13.9 | 20.0 | 0.00 | 0.00 | 0.00 | 38 | 1013.2 |
| 20260503223004 | 54 | 255 | 8.7 | 15.6 | 0.00 | 0.00 | 0.00 | 38 | 1013.0 |
| 20260503222503 | 54 | 278 | 8.7 | 16.5 | 0.00 | 0.00 | 0.00 | 39 | 1013.0 |
| 20260503222003 | 54 | 271 | 10.4 | 16.5 | 0.00 | 0.00 | 0.00 | 40 | 1013.0 |
| 20260503221502 | 54 | 274 | 5.2 | 14.8 | 0.00 | 0.00 | 0.00 | 40 | 1013.1 |
| 20260503221002 | 54 | 218 | 8.7 | 14.8 | 0.00 | 0.00 | 0.00 | 39 | 1013.1 |
| 20260503220504 | 54 | 262 | 3.5 | 13.9 | 0.00 | 0.00 | 0.00 | 41 | 1013.1 |
| 20260503220004 | 53 | 281 | 7.8 | 14.8 | 0.00 | 0.00 | 0.00 | 39 | 1013.2 |
| 20260503215504 | 53 | 270 | 6.1 | 16.5 | 0.00 | 0.00 | 0.00 | 40 | 1013.1 |
| 20260503215003 | 54 | 287 | 7.0 | 16.5 | 0.00 | 0.00 | 0.00 | 39 | 1013.0 |
| 20260503214513 | 53 | 272 | 9.6 | 18.2 | 0.00 | 0.00 | 0.00 | 39 | 1013.0 |
| 20260503214006 | 53 | 231 | 10.4 | 18.2 | 0.00 | 0.00 | 0.00 | 39 | 1013.0 |
| 20260503213503 | 53 | 256 | 4.3 | 16.5 | 0.00 | 0.00 | 0.00 | 41 | 1013.0 |
| 20260503213003 | 54 | 259 | 9.6 | 16.5 | 0.00 | 0.00 | 0.00 | 39 | 1013.0 |
| 20260503212503 | 54 | 277 | 6.1 | 15.6 | 0.00 | 0.00 | 0.00 | 40 | 1013.1 |
| 20260503212003 | 53 | 202 | 7.0 | 15.6 | 0.00 | 0.00 | 0.00 | 41 | 1013.2 |
| 20260503211504 | 53 | 291 | 5.2 | 14.8 | 0.00 | 0.00 | 0.00 | 42 | 1013.2 |
| 20260503211002 | 53 | 234 | 8.7 | 14.8 | 0.00 | 0.00 | 0.00 | 40 | 1013.2 |
| 20260503210502 | 53 | 266 | 6.1 | 16.5 | 0.00 | 0.00 | 0.00 | 40 | 1013.3 |
| 20260503210005 | 53 | 275 | 4.3 | 16.5 | 0.00 | 0.00 | 0.00 | 40 | 1013.2 |
| 20260503205504 | 53 | 272 | 10.4 | 16.5 | 0.00 | 0.00 | 0.00 | 39 | 1013.3 |
| 20260503205003 | 53 | 256 | 9.6 | 18.2 | 0.00 | 0.00 | 0.00 | 41 | 1013.2 |
| 20260503204505 | 53 | 281 | 10.4 | 18.2 | 0.00 | 0.00 | 0.00 | 40 | 1013.2 |
| 20260503204003 | 53 | 250 | 7.8 | 16.5 | 0.00 | 0.00 | 0.00 | 40 | 1013.2 |
| 20260503203503 | 53 | 253 | 5.2 | 13.9 | 0.00 | 0.00 | 0.00 | 41 | 1013.2 |
| 20260503203005 | 53 | 302 | 5.2 | 17.4 | 0.00 | 0.00 | 0.00 | 39 | 1013.3 |
| 20260503202503 | 53 | 300 | 7.8 | 17.4 | 0.00 | 0.00 | 0.00 | 39 | 1013.3 |
| 20260503202004 | 53 | 276 | 7.0 | 17.4 | 0.00 | 0.00 | 0.00 | 40 | 1013.4 |
| 20260503201503 | 53 | 242 | 4.3 | 17.4 | 0.00 | 0.00 | 0.00 | 39 | 1013.4 |
| 20260503201007 | 54 | 293 | 9.6 | 15.6 | 0.00 | 0.00 | 0.00 | 39 | 1013.3 |
| 20260503200503 | 53 | 257 | 6.1 | 13.9 | 0.00 | 0.00 | 0.00 | 41 | 1013.5 |
| 20260503200006 | 52 | 280 | 5.2 | 18.2 | 0.00 | 0.00 | 0.00 | 40 | 1013.6 |
| 20260503195502 | 52 | 266 | 9.6 | 18.2 | 0.00 | 0.00 | 0.00 | 40 | 1013.7 |
| 20260503195003 | 52 | 278 | 8.7 | 20.0 | 0.00 | 0.00 | 0.00 | 41 | 1013.8 |
| 20260503194505 | 52 | 256 | 10.4 | 18.2 | 0.00 | 0.00 | 0.00 | 41 | 1013.9 |
| 20260503194003 | 53 | 266 | 7.8 | 16.5 | 0.00 | 0.00 | 0.00 | 41 | 1014.0 |
| 20260503193504 | 53 | 284 | 5.2 | 18.2 | 0.00 | 0.00 | 0.00 | 43 | 1014.1 |
| 20260503193005 | 52 | 290 | 7.0 | 18.2 | 0.00 | 0.00 | 0.00 | 42 | 1014.2 |
| 20260503192504 | 52 | 248 | 8.7 | 16.5 | 0.00 | 0.00 | 0.00 | 43 | 1014.2 |
| 20260503192004 | 52 | 280 | 6.1 | 16.5 | 0.00 | 0.00 | 0.00 | 42 | 1014.2 |
| 20260503191515 | 52 | 257 | 7.8 | 14.8 | 0.00 | 0.00 | 0.00 | 41 | 1014.2 |
| 20260503191004 | 52 | 274 | 6.1 | 14.8 | 0.00 | 0.00 | 0.00 | 40 | 1014.3 |
| 20260503190502 | 52 | 231 | 5.2 | 17.4 | 0.00 | 0.00 | 0.00 | 43 | 1014.3 |
| 20260503190006 | 52 | 275 | 7.0 | 17.4 | 0.00 | 0.00 | 0.00 | 43 | 1014.5 |
| 20260503185502 | 52 | 281 | 10.4 | 17.4 | 0.00 | 0.00 | 0.00 | 41 | 1014.5 |
| 20260503185002 | 53 | 278 | 6.1 | 14.8 | 0.00 | 0.00 | 0.00 | 41 | 1014.6 |
| 20260503184507 | 53 | 280 | 4.3 | 14.8 | 0.00 | 0.00 | 0.00 | 42 | 1014.6 |
| 20260503184002 | 53 | 226 | 6.1 | 17.4 | 0.00 | 0.00 | 0.00 | 44 | 1014.7 |
| 20260503183503 | 51 | 276 | 7.8 | 19.1 | 0.00 | 0.00 | 0.00 | 43 | 1014.7 |
| 20260503183007 | 51 | 279 | 7.0 | 19.1 | 0.00 | 0.00 | 0.00 | 43 | 1014.9 |
| 20260503182503 | 51 | 288 | 5.2 | 13.0 | 0.00 | 0.00 | 0.00 | 43 | 1014.9 |
| 20260503182006 | 51 | 283 | 4.3 | 15.6 | 0.00 | 0.00 | 0.00 | 43 | 1015.0 |
| 20260503181506 | 51 | 266 | 9.6 | 15.6 | 0.00 | 0.00 | 0.00 | 43 | 1014.8 |
| 20260503181004 | 51 | 292 | 7.0 | 15.6 | 0.00 | 0.00 | 0.00 | 42 | 1014.8 |
| 20260503180504 | 51 | 274 | 8.7 | 15.6 | 0.00 | 0.00 | 0.00 | 42 | 1014.9 |
| 20260503180006 | 50 | 303 | 4.3 | 18.2 | 0.00 | 0.00 | 0.00 | 44 | 1014.9 |
| 20260503175503 | 50 | 255 | 7.8 | 18.2 | 0.00 | 0.00 | 0.00 | 42 | 1014.9 |
| 20260503175003 | 51 | 286 | 7.8 | 13.9 | 0.00 | 0.00 | 0.00 | 42 | 1014.9 |